Oklahoma City Wiley Post, OK

2:13 PM CDT on September 19, 2017 (GMT -0500)
Wiley Post

Weather History for KPWA - October, 2012

Change the Weather History Date:

Sunday, October 21, 2012

  Actual Average Record
Temperature  
Mean Temperature 77 °F -  
Max Temperature 88 °F 71 °F 88 °F (2004)
Min Temperature 66 °F 47 °F 32 °F (1976)
Cooling Degree Days 12    
Growing Degree Days 27 (Base 50)    
Moisture  
Dew Point 65 °F    
Average Humidity 69    
Maximum Humidity 94    
Minimum Humidity 48    
Precipitation  
Precipitation 0.00 in - - ()
Sea Level Pressure  
Sea Level Pressure 29.69 in    
Wind  
Wind Speed 19 mph (South)    
Max Wind Speed 26 mph    
Max Gust Speed 36 mph    
Visibility 8 miles    
Events      
Averages and records for this station are not official NWS values.
T = Trace of Precipitation, MM = Missing Value Source: NWS Daily Summary

Daily Weather History Graph

Daily Weather History Graph

Search for Another Location

Airport or City:

Trip Planner

Search our weather history database for the weather conditions in past years. The results will help you decide how hot, cold, wet, or windy it might be!

Date:

Astronomy

Oct. 21, 2012 Rise Set
Actual Time 7:42 AM CDT 6:47 PM CDT
Civil Twilight 7:16 AM CDT 7:12 PM CDT
Nautical Twilight 6:47 AM CDT 7:42 PM CDT
Astronomical Twilight 6:17 AM CDT 8:12 PM CDT
Moon 2:00 PM CDT (10/21) No Moon Set
Length of Visible Light 11h 56m
Length of Day
11h 04m
Waxing Crescent, 45% of the Moon is Illuminated
Oct 21
Waxing Crescent
Oct 21
First Quarter
Oct 29
Full
Nov 6
Last Quarter
Nov 13
New

Hourly Weather History & Observations

Time (CDT) Temp. Heat Index Dew Point Humidity Pressure Visibility Wind Dir Wind Speed Gust Speed Precip Events Conditions
12:53 AM 70.0 °F - 63.0 °F 78% 29.67 in 9.0 mi South 18.4 mph - N/A   Clear
1:53 AM 69.1 °F - 63.0 °F 81% 29.67 in 9.0 mi South 13.8 mph - N/A   Clear
2:53 AM 68.0 °F - 64.0 °F 87% 29.67 in 8.0 mi South 15.0 mph - N/A   Clear
3:53 AM 68.0 °F - 64.0 °F 87% 29.67 in 8.0 mi South 17.3 mph - N/A   Clear
4:53 AM 66.2 °F - 64.4 °F 94% 29.71 in 7.0 mi South 13.8 mph - N/A   Clear
5:53 AM 66.9 °F - 64.0 °F 90% 29.68 in 7.0 mi South 12.7 mph - N/A   Clear
6:53 AM 68.0 °F - 64.0 °F 87% 29.70 in 8.0 mi South 13.8 mph - N/A   Clear
7:53 AM 69.1 °F - 64.9 °F 87% 29.70 in 6.0 mi South 18.4 mph - N/A   Clear
8:53 AM 71.1 °F - 66.0 °F 84% 29.71 in 6.0 mi South 18.4 mph - N/A   Haze
9:53 AM 73.9 °F - 66.9 °F 79% 29.72 in 6.0 mi South 24.2 mph 31.1 mph N/A   Haze
10:53 AM 78.1 °F - 66.9 °F 68% 29.72 in 7.0 mi South 26.5 mph - N/A   Clear
11:53 AM 82.0 °F 84.1 °F 66.0 °F 58% 29.72 in 8.0 mi SSW 20.7 mph 35.7 mph N/A   Clear
12:53 PM 84.0 °F 85.8 °F 64.9 °F 53% 29.71 in 9.0 mi South 20.7 mph 32.2 mph N/A   Clear
1:53 PM 84.9 °F 86.6 °F 64.9 °F 51% 29.68 in 9.0 mi South 26.5 mph 33.4 mph N/A   Clear
2:53 PM 87.1 °F 89.2 °F 66.0 °F 49% 29.65 in 10.0 mi South 23.0 mph 31.1 mph N/A   Clear
3:53 PM 88.0 °F 90.3 °F 66.0 °F 48% 29.65 in 10.0 mi South 25.3 mph 33.4 mph N/A   Clear
4:53 PM 87.1 °F 89.9 °F 66.9 °F 51% 29.66 in 10.0 mi South 26.5 mph 33.4 mph N/A   Clear
5:53 PM 84.9 °F 87.6 °F 66.9 °F 55% 29.67 in 9.0 mi South 20.7 mph 26.5 mph N/A   Clear
6:53 PM 82.9 °F 85.0 °F 66.0 °F 56% 29.68 in 9.0 mi South 20.7 mph 27.6 mph N/A   Clear
7:53 PM 81.0 °F 83.0 °F 66.0 °F 60% 29.70 in 10.0 mi SSE 19.6 mph 26.5 mph N/A   Clear
8:53 PM 80.1 °F 82.1 °F 66.0 °F 62% 29.70 in 9.0 mi SSE 19.6 mph 31.1 mph N/A   Clear
9:53 PM 79.0 °F - 66.0 °F 64% 29.72 in 8.0 mi SSE 20.7 mph 28.8 mph N/A   Clear
10:53 PM 78.1 °F - 66.0 °F 66% 29.73 in 9.0 mi SSE 19.6 mph - N/A   Clear
11:53 PM 77.0 °F - 64.9 °F 66% 29.73 in 9.0 mi South 16.1 mph - N/A   Clear